Participated 5 times
Between 1987 and 1991
Alfred Achermann, Switzerland
Tour de France 2026 starts from Barcelona, Spain in

Stats and Facts from
Tour de France.

2026   2025   2024   2023  2022  2021  2020  2019   2018  2017   2016   2015  2014  2013   2012   2011  2010   2009   2008   2007   2006   2005   2004   2003   2002   2001   2000   1999   1998   1997  1996   1995   1994   1993   1992  1991   1990   1989   1988   1987   1986   1985   1984   1983  1982  1981   1980   1979  1978  1977   1976  1975  1974  1973   1972   1971   1970  1969   1968   1967   1966   1965  1964  1963   1962   1961   1960   1959   1958   1957  1956   1955   1954   1953   1952  1951  1950  1949   1948  1947  1939   1938   1937   1936   1935   1934   1933  1932   1931   1930  1929   1928   1927   1926  1925  1924  1923   1922   1921   1920   1919  1914   1913   1912   1911   1910  1909   1908   1907   1906  1905  1904   1903 

Tourstats
Sitemap

After stage 21 - 2025:
 16451 starters.
  5464 different riders.
  689 teams.
  2398 stages.
  470 restdays.
  466506.50 km.
  5925 abandoned riders.

Click map for 1910 route.
Facts from Tour de France 1910 Additional info and images from 1910.
  |   Stages.  |   Stage winners.  |   Days in jerseys.  |   Teams.  |   All riders.  |   All riders by age.  |   All riders from.  |  

  |   Rookies.  |   Withdrawls.  |   Average speed.  |   GC.  |   Polka  |   Green  |   White  |   Summits. (In tour)  |   Miscellaneous.  |  

Stage 5 on July 11th. 1910
Pick a stage:  1  2  3  4  5  6  7  8  9  10  11  12  13  14  15  

After stage 5:    François Faber  
  LyonGrenoble | Dist: 311.00km. | Winner: Octave Lapize

Podium

Average speed for all riders in stage:  21,910 km./hr.

1
 Octave Lapize  Alcyon10h 43' 00"=29,020  km/h

2
 Charles Crupelandt  Le Globe10h 45' 00"+  00:02:00 =28,930  km/h

3
 Cyrille Van Hauwaert  Alcyon10h 47' 00"+  00:04:00 =28,841  km/h

4  Lucien Petit-Breton  Legnano10h 50' 00"+  00:07:00 =28,708  km/h

5  Jean-Baptiste Dortignacq  Legnano11h 00' 00"+  00:17:00 =28,273  km/h

6  François Faber  Alcyon11h 05' 00"+  00:22:00 =28,060  km/h

7  Gustave Garrigou  Alcyon11h 09' 00"+  00:26:00 =27,892  km/h

8  Aldo Bettini  Alcyon11h 12' 00"+  00:29:00 =27,768  km/h

9  Charles Cruchon  Individual11h 12' 00"+  00:29:00 =27,768  km/h

10  Georges Paulmier  Le Globe11h 13' 00"+  00:30:00 =27,727  km/h

11  André Blaise  Alcyon11h 15' 00"+  00:32:00 =27,644  km/h

12  Jules Deloffre  Le Globe11h 20' 00"+  00:37:00 =27,441  km/h

13  Julien Maîtron  Le Globe11h 21' 00"+  00:38:00 =27,401  km/h

14  Ernesto Azzini  Legnano11h 31' 00"+  00:48:00 =27,004  km/h

15  Frédéric Saillot  Le Globe11h 36' 00"+  00:53:00 =26,810  km/h

16  François  Lafourcade  Individual11h 41' 00"+  00:58:00 =26,619  km/h

17  Giuseppe Azzini  Legnano11h 46' 00"+  01:03:00 =26,431  km/h

18  Constant Menager  Legnano11h 49' 00"+  01:06:00 =26,319  km/h

19  Emile Georget  Legnano11h 52' 00"+  01:09:00 =26,208  km/h

20  Leon Lannoy  Le Globe12h 02' 00"+  01:19:00 =25,845  km/h

21  Maurice Decaup  Legnano12h 03' 00"+  01:20:00 =25,809  km/h

22  Henri Cornet  Le Globe12h 07' 00"+  01:24:00 =25,667  km/h

23  Maurice Brocco  Legnano12h 08' 00"+  01:25:00 =25,632  km/h

24  Maurice Pardon  Individual12h 13' 00"+  01:30:00 =25,457  km/h

25  Louis Trousselier  Alcyon12h 26' 00"+  01:43:00 =25,013  km/h

26  Marcel Godivier  Alcyon12h 32' 00"+  01:49:00 =24,814  km/h

27  Joseph Leblanc  Individual12h 32' 00"+  01:49:00 =24,814  km/h

28  Georges Fleury  Individual12h 34' 00"+  01:51:00 =24,748  km/h

29  Ernest Paul  Individual12h 39' 00"+  01:56:00 =24,585  km/h

30  Augustin Ringeval  Individual12h 51' 00"+  02:08:00 =24,202  km/h

31  Albert Cognat  Individual12h 54' 00"+  02:11:00 =24,109  km/h

32  Jean Bouillet  Individual13h 00' 00"+  02:17:00 =23,923  km/h

33  Raphael Galiero  Individual13h 03' 00"+  02:20:00 =23,831  km/h

34  Noel Combelles  Individual13h 10' 00"+  02:27:00 =23,620  km/h

35  Pierino Albini  Legnano13h 14' 00"+  02:31:00 =23,501  km/h

36  Louis Pennequin  Individual13h 20' 00"+  02:37:00 =23,325  km/h

37  François Riou  Individual13h 30' 00"+  02:47:00 =23,037  km/h

38  Auguste Dufour  Individual13h 45' 00"+  03:02:00 =22,618  km/h

39  Pierre Privat  Individual13h 46' 00"+  03:03:00 =22,591  km/h

40  Joseph Habierre  Individual13h 47' 00"+  03:04:00 =22,563  km/h

41  Lucien Leman  Individual13h 49' 00"+  03:06:00 =22,509  km/h

42  Auguste Guyon  Individual13h 51' 00"+  03:08:00 =22,455  km/h

43  Lucien Pothier  Individual13h 57' 00"+  03:14:00 =22,294  km/h

44  Lauro Bordin  Legnano14h 07' 00"+  03:24:00 =22,031  km/h

45  Jean-Baptiste Camdessoucens  Individual14h 13' 00"+  03:30:00 =21,876  km/h

46  Pietro Ghislotti  Individual14h 14' 00"+  03:31:00 =21,850  km/h

47  Rene Bartholet  Individual14h 18' 00"+  03:35:00 =21,748  km/h

48  Jean Perrucca  Individual14h 35' 00"+  03:52:00 =21,326  km/h

49  Robert Chopard  Individual14h 41' 00"+  03:58:00 =21,180  km/h

50  Lucien Roquebert  Individual14h 50' 00"+  04:07:00 =20,966  km/h

51  Francois Picolot  Individual14h 54' 00"+  04:11:00 =20,872  km/h

52  Antony Wattelier  Individual14h 55' 00"+  04:12:00 =20,849  km/h

53  Georges Cauvry  Individual15h 09' 00"+  04:26:00 =20,528  km/h

54  Albert Baudet  Individual15h 10' 00"+  04:27:00 =20,505  km/h

55  Gabriel Mathonat  Individual15h 35' 00"+  04:52:00 =19,957  km/h

56  Louis Jouin  Individual15h 36' 00"+  04:53:00 =19,936  km/h

57  Louis Picard  Individual15h 39' 00"+  04:56:00 =19,872  km/h

58  Emile Godard  Individual17h 04' 00"+  06:21:00 =18,223  km/h

59  Adrien Heloin  Individual17h 05' 00"+  06:22:00 =18,205  km/h

60  Charles Dumont  Individual17h 24' 00"+  06:41:00 =17,874  km/h

61  Adolphe Hélière  Individual17h 36' 00"+  06:53:00 =17,670  km/h

62  Eugene Moura  Individual19h 05' 00"+  08:22:00 =16,297  km/h

63  Henri Alavoine  Individual19h 07' 00"+  08:24:00 =16,269  km/h

64  René Chaudé  Individual19h 09' 00"+  08:26:00 =16,240  km/h

65  Emile Besnier  Individual19h 54' 00"+  09:11:00 =15,628  km/h

66  Camille Bière  Individual19h 55' 00"+  09:12:00 =15,615  km/h

67  Constant Collet  Individual20h 03' 00"+  09:20:00 =15,511  km/h

68  Eugene Leroy  Individual20h 22' 00"+  09:39:00 =15,270  km/h

69  Alexandre Rambaudi  Individual20h 23' 00"+  09:40:00 =15,258  km/h

70  Henri Ory  Individual20h 26' 00"+  09:43:00 =15,220  km/h

71  Paul Amiot  Individual20h 26' 00"+  09:43:00 =15,220  km/h

72  Joseph Wiringer  Individual20h 46' 00"+  10:03:00 =14,976  km/h


Withdrawls: 6
 RiderTeamReason
9   Edouard Leonard AlcyonDid not finish
21   Omer Beaugendre Le GlobeDid not finish
24   Alphonse Charpiot Le GlobeDid not finish
131   Emile Lamy IndividualDid not finish
144   Georges Devilly IndividualDid not finish
149   Pierre Desvages IndividualDid not finish
Todays birthdays.

1889 • Adolphe Landon
1890 • Jules Lebreton
1904 • Julien Grujon
1909 • Erich Metze
1926 • Giovanni Rossi
1928 • Serge Blusson
1928 • Alois Vansteenkiste
1931 • André Dupré
1934 • Alfred Rüegg
1962 • Francisco Espinosa
1962 • Paul Kimmage
1963 • Federico Muñoz
1966 • Andrea Tafi
1971 • Emmanuel Magnien
1973 • Paolo Savoldelli
1985 • Mikhail Ignatyev

 

Optimized for Chrome - Edge
and Opera browsers.